Location: Charbonni�res
(45.9952°N, 2.9982°E)
Time: 18:28:52
(UTC+00:00)

ATLAS 2AS CENTAUR R/B - Pass Details

Date: 29 November 2020
Orbit: 943 x 1268 km, 63.7° (Epoch: 21 January)

Event Time Altitude Azimuth Distance (km) Brightness Sun altitude
Exits shadow 06:03:11 - 254° (WSW) 3,728 5.0 -10.9°
Reaches altitude 10° 06:04:43 10° 258° (WSW) 3,256 4.7 -10.6°
Maximum altitude 06:12:01 39° 325° (NW) 1,819 3.5 -9.5°
Drops below altitude 10° 06:19:12 10° 33° (NNE) 3,189 5.3 -8.3°
Sets 06:22:11 0° 41° (NE) 4,118 6.0 -7.8°
